User: anonymous   Login
Location: Bishop�s Knoyle
(51.0728°N, 2.1714°W)
Time: 15:30:05
(UTC+00:00)
Language:

Oscar 11 - Orbit

View from above orbital plane
View from above orbital plane
View from above satellite
View from above satellite

Ground track
Ground track

The orbit data is extracted from the following two-line orbital elements,

1 14781U 84021B   21330.69720002  .00000278  00000-0  39933-4 0  9999
2 14781  97.6027 322.6359 0006923 268.1958  91.8463 14.83371583  9983
Epoch (UTC): 26 November 2021 16:43:58
Eccentricity: 0.0006923
inclination: 97.6027°
perigee height: 614 km
apogee height: 623 km
right ascension of ascending node: 322.6359°
argument of perigee: 268.1958°
revolutions per day: 14.83371583
mean anomaly at epoch: 91.8463°
orbit number at epoch: 998

The dashed part of the orbit path shows where the satellite is in the earth's shadow,  

DLR